This demonstration page uses our WeatherBlox Daily Observations layout. Learn more.

Left ArrowRight Arrow

39.01783, -85.05884

Hourly Observations for May 2, 2022

Temp ( °F °C ) Dew Point ( °F °C ) Humidity (%) Winds ( mph kmh ) Pressure ( in mb ) Visibility ( mi km ) Precip ( " mm )
12:52 am 00:52 Clear 55 12.8 46 7.8 72 72 NW 6 9 30.00 1016 10 16 0.00 0.00
1:52 am 01:52 Clear 54 12.2 46 7.8 75 75 Calm 30.00 1016 10 16 0.00 0.00
2:52 am 02:52 Clear 49 9.4 45 7.2 86 86 SSW 5 7 30.00 1016 10 16 0.00 0.00
3:52 am 03:52 Clear 49 9.4 45 7.2 86 86 Calm 30.01 1016 10 16 0.00 0.00
4:52 am 04:52 Clear 48 8.9 45 7.2 89 89 SSW 3 6 30.03 1017 10 16 0.00 0.00
5:52 am 05:52 Clear 48 8.9 45 7.2 89 89 Calm 30.02 1017 10 16 0.00 0.00
6:52 am 06:52 Sunny 45 7.2 45 7.2 100 100 Calm 30.05 1018 10 16 0.00 0.00
7:52 am 07:52 Mostly Sunny 50 10 48 8.9 93 93 SW 3 6 30.06 1018 10 16 0.00 0.00
8:52 am 08:52 Mostly Sunny 56 13.3 47 8.3 72 72 WSW 5 7 30.07 1018 10 16 0.00 0.00
9:52 am 09:52 Sunny 60 15.6 46 7.8 60 60 W 8 13 30.07 1018 10 16 0.00 0.00
10:52 am 10:52 Mostly Sunny 63 17.2 48 8.9 58 58 SSW 9 15 30.07 1018 10 16 0.00 0.00
11:52 am 11:52 Mostly Sunny 66 18.9 49 9.4 54 54 WNW 13 20 30.06 1018 10 16 0.00 0.00
12:52 pm 12:52 Mostly Sunny 68 20 48 8.9 49 49 W 12 19 30.05 1018 10 16 0.00 0.00
1:52 pm 13:52 Partly Cloudy 71 21.7 49 9.4 46 46 W 7 11 30.05 1018 10 16 0.00 0.00
2:52 pm 14:52 Mostly Cloudy 72 22.2 48 8.9 43 43 WNW 9 15 30.04 1017 10 16 0.00 0.00
3:52 pm 15:52 Mostly Cloudy 72 22.2 46 7.8 40 40 WSW 12 19 30.04 1017 10 16 0.00 0.00
4:52 pm 16:52 Mostly Cloudy 71 21.7 48 8.9 44 44 SSW 8 13 30.03 1017 10 16 0.00 0.00
5:52 pm 17:52 Cloudy 70 21.1 48 8.9 46 46 WSW 8 13 30.03 1017 10 16 0.00 0.00
6:52 pm 18:52 Cloudy 69 20.6 50 10 51 51 W 5 7 30.03 1017 10 16 0.00 0.00
7:52 pm 19:52 Cloudy 71 21.7 44 6.7 38 38 Calm 30.00 1016 10 16 0.00 0.00
8:52 pm 20:52 Mostly Cloudy 68 20 47 8.3 47 47 Calm 30.00 1016 10 16 0.00 0.00
9:52 pm 21:52 Cloudy 64 17.8 47 8.3 54 54 S 3 6 30.00 1016 10 16 0.00 0.00
10:52 pm 22:52 Cloudy 63 17.2 48 8.9 58 58 SE 5 7 30.00 1016 10 16 0.00 0.00
11:52 pm 23:52 Mostly Cloudy 64 17.8 47 8.3 54 54 ESE 6 9 29.99 1016 10 16 0.00 0.00

Powered by AerisWeather